User: anonymous   Login
Location: Bothwell
(42.3833°S, 147.0000°E)
Time: 20:08:52
(UTC+10:00)
Language:

COSMOS 2251 DEB - Orbit

View from above orbital plane
View from above orbital plane
View from above satellite
View from above satellite

Ground track
Ground track

The orbit data is extracted from the following two-line orbital elements,

1 38067U 93036BRZ 24147.10197837  .00003667  00000-0  78266-3 0  9993
2 38067  74.0195 274.3650 0075003 203.3859 331.5054 14.57491849543032
Epoch (UTC): 26 May 2024 02:26:50
Eccentricity: 0.0075003
inclination: 74.0195°
perigee height: 648 km
apogee height: 754 km
right ascension of ascending node: 274.3650°
argument of perigee: 203.3859°
revolutions per day: 14.57491849
mean anomaly at epoch: 331.5054°
orbit number at epoch: 54303

The dashed part of the orbit path shows where the satellite is in the earth's shadow,  

DLR